Wind_Speed
21 20 17 16 15 14 14 14 15 15 14 14 14 13 14 14 13 11 10 9 7 4 5 6 5 5 4 4 4 3 4 3 3 3 3 3 2 2 1 1 1 1 2 2 2 1 0 2 3 4 4 4 4 4 3 2 2 2 1 1 1 1 1 2 2 3 4 4 4 5 6 7 7 8 8 8 8 9 9 9 9 10 10 8 8
14 16 16 17 17 16 17 17 16 15 13 12 11 11 12 12 10 10 10 10 9 6 5 6 7 7 7 7 7 6 6 5 5 4 4 3 2 2 2 2 3 3 3 4 4 4 4 3 3 2 2 3 3 3 3 3 3 3 2 2 2 2 3 3 4 4 4 5 6 6 6 8 9 9 10 11 11 12 12 12 12 12 13 13 12
10 12 14 16 17 17 16 15 14 12 11 10 10 10 10 11 10 11 11 11 11 10 8 7 8 9 10 10 9 9 9 8 8 8 7 6 6 5 5 5 5 6 6 7 7 7 6 6 6 6 6 5 5 5 4 5 5 5 5 5 5 5 5 6 6 6 7 7 8 9 8 9 11 12 12 13 14 14 15 15 16 17 17 18 19
9 10 12 13 14 14 14 13 12 11 10 9 9 8 9 10 11 12 12 12 13 12 11 10 10 10 11 12 12 12 12 11 11 11 11 10 10 9 9 8 8 8 9 10 11 10 10 10 9 9 9 9 9 8 8 8 8 8 7 8 8 8 8 8 9 10 10 10 10 11 12 12 13 15 15 16 16 17 18 18 20 22 22 21 22
9 9 10 11 11 11 11 11 11 10 10 9 9 8 8 10 11 13 14 14 15 15 14 13 13 12 13 14 15 15 14 14 14 14 14 13 13 12 12 12 12 12 13 14 14 14 14 14 13 13 12 12 12 12 11 10 12 11 10 11 10 9 9 10 11 12 12 13 13 13 14 15 16 16 16 17 19 20 22 22 23 26 27 25 23
11 10 10 10 10 10 11 11 11 11 10 10 10 8 9 10 11 13 14 16 16 16 16 16 16 15 14 15 15 16 16 17 17 17 16 16 16 16 16 16 15 15 16 17 17 17 16 16 16 15 14 13 13 12 12 12 12 12 12 14 15 12 11 12 13 12 11 13 16 17 17 17 18 19 18 18 19 22 24 24 23 25 28 28 25
13 12 10 10 10 10 11 11 12 12 11 11 11 10 10 10 11 12 14 15 16 16 17 18 17 16 16 16 16 17 19 19 19 20 20 20 20 20 20 20 19 19 18 18 16 15 16 16 16 15 14 13 13 12 12 11 10 10 11 13 13 12 11 12 12 13 12 13 15 18 19 19 19 21 22 21 21 23 25 24 23 23 25 27 27
14 13 12 12 13 13 13 14 13 13 13 12 12 11 11 12 13 14 14 15 16 17 17 18 18 18 19 19 20 21 21 21 22 23 23 23 23 23 24 24 23 22 21 19 16 14 14 14 14 14 13 12 12 11 11 10 9 9 9 9 9 10 10 11 12 14 14 15 15 16 20 22 22 23 26 25 24 23 24 25 24 25 26 27 28
16 15 14 14 15 15 15 14 14 14 14 14 13 12 12 13 15 16 16 16 17 18 18 18 19 20 21 23 24 25 24 24 24 24 23 24 23 23 25 26 26 25 23 21 19 16 14 13 12 11 10 10 9 9 9 9 10 10 10 10 10 10 11 11 12 14 15 16 17 18 21 22 21 24 28 28 27 25 25 26 27 27 28 28 28
17 16 15 15 15 15 15 14 14 15 15 15 14 13 13 15 17 17 19 20 20 21 21 20 21 23 24 25 26 27 28 27 25 24 23 24 25 24 26 28 28 27 25 23 20 16 14 12 11 10 10 9 9 10 10 11 12 12 12 13 13 13 14 14 15 16 17 18 19 20 23 24 23 27 30 30 29 28 27 27 28 28 28 28 27
17 17 16 15 15 15 15 15 15 16 16 16 16 16 16 17 18 18 20 22 24 26 26 23 23 23 23 23 25 29 30 26 22 23 24 25 25 25 28 29 28 28 28 24 20 16 13 12 10 10 10 11 11 12 13 13 13 14 14 15 15 15 16 17 17 18 19 20 22 23 25 27 28 29 30 30 30 29 28 28 29 29 30 30 29
18 18 17 16 16 17 17 17 18 18 18 19 19 20 19 19 19 19 20 22 23 25 24 22 22 23 22 23 27 30 29 24 21 23 24 25 25 26 28 27 26 27 27 23 17 14 13 12 12 11 11 13 13 13 13 14 15 15 16 16 16 16 17 18 18 20 21 22 24 25 25 26 28 30 29 29 30 30 29 30 30 31 33 33 33
18 19 18 18 18 19 19 20 21 21 21 21 21 21 21 21 22 22 21 21 22 22 20 18 20 22 23 25 28 31 31 27 25 25 25 24 24 26 28 25 22 22 22 18 15 13 13 13 14 13 12 13 14 14 14 15 15 16 17 17 17 17 18 18 19 20 21 22 23 25 26 25 27 30 30 30 31 32 32 32 33 34 36 36 36
18 18 19 19 19 20 20 21 21 22 23 23 22 22 22 22 24 25 24 24 23 22 21 19 19 22 24 25 27 30 32 31 29 28 27 25 24 25 25 21 16 14 14 13 13 12 12 12 14 13 12 13 14 15 14 15 15 16 17 18 18 18 19 20 20 21 22 23 24 25 27 27 27 30 31 31 32 33 34 35 35 36 37 37 38
18 18 18 18 18 19 20 20 21 22 23 23 23 23 24 25 26 27 27 26 25 24 23 22 21 22 24 25 26 28 30 30 31 32 30 27 25 24 21 18 14 11 11 13 13 13 13 13 13 14 14 14 14 15 15 15 16 17 18 19 19 20 20 21 22 23 24 25 26 26 27 28 29 31 32 32 33 34 35 36 37 37 39 39 39
18 18 18 19 19 19 20 20 21 21 22 22 23 24 25 25 26 26 27 27 27 26 26 26 25 25 25 25 26 27 28 27 29 33 32 28 24 21 19 18 16 14 13 14 15 15 15 14 14 15 14 13 13 15 16 16 17 18 20 21 21 21 22 22 23 24 25 26 27 27 28 28 29 31 32 33 35 36 37 38 38 39 41 41 41
19 19 19 19 19 19 19 20 20 20 20 20 21 23 24 24 25 26 27 26 27 27 28 28 29 29 28 27 26 27 27 25 24 26 28 25 20 18 18 18 17 15 14 16 16 16 15 15 15 15 14 14 14 15 16 18 19 20 21 22 23 23 23 23 24 25 26 27 28 29 29 30 31 33 34 35 36 38 39 40 40 41 42 43 42
19 19 19 19 19 20 21 21 22 22 22 23 24 25 26 26 27 28 28 27 28 28 28 29 29 27 26 26 25 25 25 23 20 19 20 21 21 21 19 18 18 17 17 18 17 16 16 15 15 16 15 15 15 16 17 19 21 22 23 24 24 26 26 25 26 28 29 29 30 31 32 33 35 36 37 38 39 40 41 41 41 42 42 42 42
20 20 21 21 22 23 24 25 26 26 27 27 28 29 29 29 29 30 30 30 30 30 30 30 29 28 26 25 25 24 22 21 20 18 19 21 23 23 21 20 20 20 19 20 19 17 17 17 17 17 17 16 17 18 19 21 22 24 26 26 27 29 30 28 27 29 30 31 32 33 34 35 37 37 38 39 39 39 40 40 40 40 41 40 40
23 24 24 25 25 27 28 29 29 29 29 30 31 31 30 30 32 33 32 32 32 32 33 31 28 29 30 27 26 26 25 22 21 19 19 20 22 23 22 21 22 22 21 22 21 20 20 20 19 19 19 19 20 20 21 23 24 25 27 28 28 31 32 31 29 30 31 32 33 35 35 37 38 39 40 40 40 40 40 39 38 38 38 38 37
27 28 28 28 29 29 30 30 30 29 29 31 32 32 31 31 32 33 32 32 32 33 35 31 26 28 34 32 28 27 26 24 23 22 21 21 22 23 23 22 23 23 23 23 24 24 24 22 21 22 22 22 22 22 23 25 25 26 27 28 30 31 32 32 31 31 32 33 34 34 35 36 38 40 41 41 42 42 41 40 39 38 37 37 37
31 30 31 31 31 32 32 32 33 32 31 32 32 33 32 32 33 34 33 33 33 34 36 33 27 27 33 33 31 29 27 26 26 25 25 25 25 25 26 25 25 24 24 23 24 26 24 22 22 24 24 24 24 24 25 26 27 27 28 29 30 30 31 32 32 32 32 33 33 34 35 37 38 39 39 39 39 40 39 38 37 37 36 37 36
34 33 34 34 35 35 36 36 37 36 36 35 35 35 35 35 35 35 35 35 35 35 37 36 33 32 33 33 31 29 27 26 27 27 28 29 29 29 30 29 27 26 24 23 24 27 26 24 24 26 26 26 26 27 28 28 28 29 29 29 30 30 30 31 32 32 32 32 34 35 37 38 38 38 38 38 37 36 36 36 35 35 36 37 37
39 39 39 39 39 40 40 39 40 39 39 39 39 39 39 39 38 38 38 37 37 37 38 37 35 34 35 34 32 30 28 26 26 26 27 29 31 31 31 30 28 26 25 24 26 28 28 28 28 28 28 29 30 29 29 29 29 30 30 30 30 29 30 31 32 32 33 34 35 37 37 38 37 36 36 36 35 34 34 35 35 35 36 37 38
43 43 43 44 44 44 44 44 44 44 43 43 43 42 42 42 41 40 40 40 40 40 39 38 36 35 36 36 36 35 33 30 28 27 27 28 29 30 30 29 27 26 26 27 29 30 31 31 32 31 30 30 30 29 29 29 29 29 30 29 30 30 30 31 32 33 34 35 37 37 37 36 35 35 35 35 33 33 34 35 36 36 37 38 39
45 46 46 47 47 47 46 46 46 46 46 46 46 46 46 45 44 43 42 42 43 43 42 41 39 37 36 37 40 40 37 35 33 32 32 31 32 32 32 31 31 32 32 33 32 31 31 30 30 29 29 29 29 29 29 29 29 30 30 30 31 31 31 31 32 33 34 35 36 35 34 33 32 33 34 34 34 34 35 36 37 37 38 39 40
45 45 46 46 45 44 44 43 43 43 44 44 45 47 47 47 47 46 45 44 44 46 45 44 44 42 37 36 40 42 40 37 35 34 34 33 32 32 32 32 33 34 33 32 31 30 29 28 28 28 28 29 29 29 30 30 30 30 30 30 31 31 32 32 32 33 34 33 33 33 32 31 31 32 33 34 35 35 36 37 38 39 39 40 40
42 42 42 42 41 41 41 41 40 40 40 41 42 43 45 46 47 48 48 47 46 46 46 46 47 46 41 36 37 39 40 37 35 35 33 31 29 28 28 27 27 27 25 24 24 25 25 26 27 27 28 29 29 29 29 29 29 29 30 31 31 31 31 31 31 32 31 31 30 30 30 30 30 31 32 33 34 35 36 37 39 39 39 39 39
40 40 40 40 40 40 41 41 41 42 42 42 42 42 42 44 45 46 48 49 49 48 49 48 45 44 44 41 37 36 37 36 35 35 32 27 25 24 23 22 22 22 21 21 21 22 22 23 25 26 27 27 27 29 29 29 28 29 29 30 30 31 30 30 30 30 29 28 28 28 28 29 29 30 31 32 33 34 35 37 37 37 37 36 35
35 35 35 36 37 37 38 38 39 41 42 42 43 43 43 44 44 44 45 48 50 51 52 52 49 45 45 44 41 39 37 34 32 31 28 25 22 21 20 21 21 21 20 21 21 21 22 23 25 26 26 26 27 28 29 29 29 28 27 27 28 28 28 28 28 28 28 27 26 27 27 28 28 29 30 31 32 33 33 34 35 35 34 32 29
27 27 27 28 29 30 31 32 32 34 36 38 40 42 43 43 44 44 44 45 47 49 51 55 54 50 48 47 45 43 37 31 29 29 26 22 19 19 20 22 23 22 22 22 22 22 23 24 25 26 26 27 28 29 28 28 28 27 26 26 26 26 26 26 25 25 25 25 25 26 26 26 27 29 30 30 31 30 30 31 31 31 29 28 26
23 24 24 25 26 26 27 28 29 30 32 34 35 37 39 40 41 43 42 42 43 45 48 51 52 50 49 48 49 48 41 31 27 28 30 27 23 22 23 24 25 25 24 24 23 24 24 25 26 26 27 28 28 28 27 26 25 25 25 25 25 24 23 23 23 23 23 24 24 24 24 26 27 28 29 29 29 28 28 28 28 27 26 25 24
22 23 23 24 25 26 27 28 29 30 31 32 34 34 35 36 37 38 39 40 41 42 44 46 48 48 49 49 50 51 47 38 31 31 31 31 29 27 25 25 26 26 25 24 25 25 25 25 26 27 27 26 26 25 24 24 24 23 23 22 22 23 22 22 22 22 22 22 22 22 24 25 27 27 28 28 27 27 26 26 25 25 24 24 23
20 20 21 23 24 26 27 29 30 31 32 33 35 35 35 35 35 34 35 37 38 37 37 40 42 44 46 48 50 50 48 44 40 35 30 27 27 27 27 27 27 26 25 24 24 24 25 25 26 24 22 21 22 22 22 23 23 22 21 20 21 22 22 21 21 20 20 20 21 22 23 24 25 26 26 25 25 25 25 24 23 23 22 23 22
18 19 20 22 24 25 27 28 29 30 31 32 34 35 35 35 35 33 33 34 34 32 31 34 37 39 41 43 46 48 48 45 42 39 35 32 30 29 29 29 28 26 24 23 24 25 25 24 22 20 19 19 20 21 22 23 23 21 20 20 20 21 20 19 18 18 18 19 20 21 22 23 24 24 24 24 24 23 22 21 21 20 21 21 21
18 19 19 21 23 25 26 28 29 29 29 29 30 30 30 31 33 33 32 32 31 29 28 29 32 35 37 39 40 42 45 44 42 42 41 38 34 32 31 30 27 24 23 23 25 24 22 19 18 18 18 18 19 20 21 21 21 20 19 19 19 18 17 16 16 16 17 18 19 20 21 22 22 22 22 23 22 21 20 19 18 18 19 19 19
16 17 19 21 22 23 25 27 28 28 28 27 25 24 23 24 26 28 29 27 26 27 29 27 26 28 33 36 37 38 40 41 40 40 39 37 34 33 33 30 26 23 23 23 24 22 20 18 17 17 17 18 19 20 20 19 19 18 18 18 18 16 15 14 14 15 16 17 18 19 20 21 21 21 22 22 21 20 19 18 17 17 17 18 17
15 17 18 20 21 22 24 26 26 26 26 24 23 23 22 20 20 22 25 24 22 24 25 21 17 20 25 30 32 33 35 37 36 36 37 39 39 36 33 28 23 22 21 21 21 21 19 18 17 17 17 17 18 19 19 17 17 18 18 17 16 14 13 13 12 13 14 16 16 17 18 19 20 21 22 22 21 20 19 18 17 17 17 16 16
15 17 18 19 21 23 25 25 24 22 21 20 21 21 19 17 16 19 23 23 22 24 22 14 11 16 20 23 26 28 30 31 31 31 33 36 35 31 28 23 19 19 19 20 20 20 19 18 17 18 17 17 17 18 18 16 17 18 18 16 14 12 11 11 12 13 14 15 16 17 18 18 20 21 21 21 21 20 20 19 19 18 17 17 16
15 16 18 19 21 23 24 25 23 19 16 15 15 15 14 13 14 19 22 21 20 21 21 17 17 19 18 18 21 23 24 24 25 26 29 32 31 28 25 21 18 18 18 18 18 19 19 18 18 18 17 17 17 17 16 16 17 17 16 13 11 10 9 10 12 13 14 15 16 17 18 18 19 20 21 22 22 21 20 19 19 19 18 17 17
15 16 17 19 21 23 25 25 22 17 14 12 10 11 12 11 14 20 20 17 16 18 20 21 21 21 19 18 20 21 21 21 23 25 29 32 30 27 25 24 22 20 18 16 17 19 19 19 19 18 17 16 16 16 16 17 17 16 13 10 8 8 9 10 11 13 14 15 16 17 18 19 19 20 21 22 21 20 19 19 19 18 17 17 17
14 15 16 18 20 22 24 24 21 16 13 11 7 6 7 9 16 18 15 14 16 18 19 19 18 17 17 19 21 21 20 20 22 27 32 33 31 29 28 27 24 20 17 18 18 18 18 18 19 18 16 16 16 16 16 15 15 13 10 7 7 7 8 9 10 12 13 15 16 17 18 19 19 20 21 21 21 21 20 19 18 17 17 16 16
14 15 16 17 18 20 21 21 19 15 12 9 5 7 12 14 14 12 12 14 16 17 15 14 12 13 15 17 19 19 19 18 17 22 28 31 31 29 28 28 25 20 18 18 17 16 17 18 18 17 15 15 15 15 14 13 12 10 7 5 6 7 8 8 9 11 12 14 15 17 18 18 19 20 20 20 21 22 21 20 18 17 17 17 17
15 15 15 15 16 17 18 18 16 14 12 11 11 12 13 12 10 11 12 13 15 15 13 10 8 9 12 14 15 16 17 15 12 12 15 17 18 16 17 21 21 19 16 16 15 15 17 17 16 15 14 14 14 13 12 11 9 6 5 5 6 6 7 7 9 10 12 13 14 16 17 18 19 19 20 20 22 23 22 21 19 18 18 19 18
18 16 14 14 14 14 15 15 14 14 13 12 11 10 8 6 7 10 10 9 10 12 11 9 8 9 10 12 14 14 15 14 12 9 9 11 11 10 12 16 17 15 14 14 15 15 16 16 15 14 14 13 13 12 11 9 6 4 4 5 5 6 6 7 8 9 10 11 13 15 16 18 18 19 20 21 22 22 22 21 21 20 20 20 20
19 18 16 13 11 11 12 12 11 11 11 10 8 7 6 5 6 9 9 8 8 8 7 9 10 10 9 10 12 13 12 12 11 11 11 12 12 12 14 16 15 13 13 13 14 15 15 15 14 14 13 12 11 10 9 6 5 4 4 5 5 6 6 7 8 9 9 10 11 13 15 16 18 19 20 20 20 21 21 22 22 22 21 21 21
19 20 19 16 11 9 9 10 9 8 7 7 6 6 6 6 7 8 8 7 6 5 4 6 10 11 10 10 11 12 12 12 12 13 14 14 14 15 16 15 13 12 12 13 14 14 14 14 13 12 11 11 10 9 7 5 4 4 5 6 6 6 6 7 8 8 9 10 11 12 13 15 16 18 18 19 19 19 20 21 22 22 22 22 22
16 18 19 19 15 10 7 8 9 8 7 6 6 6 6 6 6 5 4 4 5 5 5 6 8 9 9 10 11 11 10 11 11 12 13 14 15 15 15 14 14 13 14 14 14 13 13 12 11 10 10 9 9 7 5 4 4 5 5 6 6 6 6 7 8 8 9 10 11 11 12 14 15 16 17 18 18 19 20 21 22 23 22 22 22
14 15 17 18 18 14 11 8 8 8 6 6 6 6 5 5 4 2 1 2 3 4 5 6 7 8 10 11 11 11 11 10 10 11 13 14 15 16 16 16 16 15 14 13 12 11 10 10 9 9 9 8 8 6 5 5 5 5 5 5 5 6 6 7 8 9 9 10 11 11 12 13 14 15 17 18 18 19 20 20 21 22 22 21 21
14 14 15 16 17 17 15 13 11 9 7 6 5 4 3 2 2 1 1 1 1 2 3 5 7 9 10 11 11 11 11 10 11 11 13 14 16 17 18 18 17 15 13 12 11 9 9 9 9 9 9 8 7 6 6 6 5 5 5 5 5 6 7 8 8 9 10 10 11 11 12 12 13 14 16 17 18 19 19 19 20 20 21 21 21
13 14 15 15 15 16 16 15 14 13 11 9 8 6 6 5 3 2 2 1 0 1 1 3 4 6 7 9 10 11 11 13 14 15 16 16 17 17 17 17 15 14 12 11 9 8 8 9 9 9 9 8 7 7 6 6 5 5 5 5 6 7 8 8 9 10 11 11 11 12 12 12 13 13 14 16 17 17 18 18 19 20 20 20 20
Wind_Direction
218 220 219 219 221 227 236 245 255 264 270 272 274 277 280 277 271 271 272 273 290 279 213 211 214 215 218 217 215 208 198 194 184 173 163 154 144 126 97 63 42 21 11 4 0 8 116 142 142 142 143 138 132 132 126 117 128 139 146 151 157 193 254 280 292 298 304 311 311 316 322 321 322 325 323 323 324 321 321 319 316 317 313 300 295
211 216 219 222 228 235 243 251 257 262 265 267 271 273 273 270 262 259 263 265 275 279 254 235 231 232 237 241 245 246 247 251 248 242 238 234 237 247 267 293 293 291 290 287 287 289 291 290 278 257 217 197 199 192 183 195 217 225 227 235 243 242 258 273 278 284 288 292 298 305 313 317 319 322 322 322 322 322 322 322 322 323 323 319 315
212 214 218 222 229 235 241 248 252 256 259 262 268 272 272 269 256 250 254 258 263 269 269 260 249 244 246 252 255 258 264 268 268 269 270 267 265 265 270 277 279 281 281 277 273 267 268 272 274 275 273 264 257 252 244 239 244 247 246 252 257 255 262 275 281 285 288 291 296 300 304 310 312 313 315 313 313 315 315 318 319 318 318 319 316
213 215 218 221 227 232 237 244 249 253 256 259 265 270 269 264 253 246 248 252 258 263 264 266 263 256 254 257 260 262 265 267 269 272 274 273 272 271 273 276 276 279 280 279 275 269 263 260 258 258 262 266 267 266 264 262 261 260 257 257 255 254 264 278 286 291 292 290 293 298 302 305 306 308 309 308 308 309 308 310 313 311 309 311 311
199 204 207 211 218 226 236 245 250 252 255 260 265 264 259 258 254 250 249 251 256 259 261 263 266 264 258 256 259 260 261 263 264 266 267 268 269 270 271 273 274 277 279 279 275 271 268 265 261 257 255 256 259 262 265 268 269 271 276 275 268 263 267 274 281 288 292 294 297 299 300 302 303 303 304 304 306 306 306 309 311 308 306 307 308
198 200 200 203 211 222 234 243 248 251 253 256 262 263 258 256 254 251 250 250 251 254 257 260 263 264 259 253 253 254 258 261 263 263 265 267 269 270 271 272 273 276 280 280 274 268 265 264 263 261 257 255 257 260 263 268 270 273 280 283 279 276 273 273 277 283 291 298 301 300 298 300 303 304 303 303 302 300 301 305 306 302 302 305 307
197 198 201 209 215 221 232 241 247 251 251 252 257 261 259 258 257 253 249 247 247 248 252 254 257 258 254 249 248 251 256 261 263 265 268 270 270 270 269 271 273 276 281 281 275 267 259 254 252 253 252 254 259 263 265 269 273 274 281 286 280 272 270 272 277 287 293 296 298 300 301 302 303 302 302 305 305 302 302 303 302 298 298 302 304
202 204 210 220 225 229 236 240 244 249 252 253 255 257 257 257 255 251 249 249 245 241 242 244 247 249 249 248 248 249 251 256 262 268 271 273 273 269 267 268 269 272 275 274 269 264 258 250 246 247 250 255 261 266 270 277 282 282 286 292 284 274 275 276 282 293 299 297 295 296 298 302 304 302 302 306 308 307 305 303 301 299 299 300 302
209 214 221 230 236 240 244 247 249 252 255 255 255 256 258 257 255 254 258 260 253 244 240 240 243 244 246 247 248 249 252 255 261 267 273 276 275 271 268 267 267 266 265 264 262 256 252 247 244 246 251 258 265 270 277 283 286 287 288 289 286 283 284 286 288 294 296 296 296 295 295 298 300 300 303 305 306 306 303 301 300 299 300 300 301
215 220 225 233 240 245 251 258 262 263 264 264 263 262 261 261 261 262 262 261 258 252 242 235 238 242 244 246 249 253 254 254 257 263 269 273 273 271 269 269 268 264 258 258 256 249 243 238 236 244 251 261 268 274 280 283 284 288 290 290 290 289 287 288 288 287 287 288 290 290 291 293 293 295 300 302 303 304 303 301 300 300 299 299 299
218 220 223 230 239 245 251 258 263 267 270 272 271 269 267 264 264 263 262 262 260 253 242 237 242 249 252 255 257 256 253 253 258 264 266 267 270 272 273 271 267 258 251 252 251 244 241 239 239 248 258 268 275 277 281 284 285 288 289 289 289 289 289 288 286 284 284 284 284 285 287 290 292 295 298 301 303 304 303 303 302 300 299 299 299
213 218 223 229 234 241 247 251 255 260 264 267 269 270 271 269 267 266 264 265 262 255 250 250 255 260 264 267 269 269 267 268 269 268 266 265 269 273 274 273 269 258 250 249 248 243 244 247 248 252 258 266 270 272 278 283 286 289 290 290 291 290 289 288 285 284 286 286 287 288 289 290 292 295 297 300 302 303 303 303 302 300 299 299 299
217 221 225 229 232 237 241 244 247 250 253 256 258 261 264 266 268 270 271 272 271 268 268 266 261 262 267 270 273 276 277 276 273 269 266 264 267 271 272 272 272 262 249 244 247 251 256 259 259 256 255 259 263 269 276 281 285 288 289 289 290 290 289 288 286 287 288 288 288 289 290 292 294 295 298 300 300 300 301 300 299 298 298 298 298
225 228 231 234 235 237 239 241 243 244 246 248 251 253 257 260 264 270 274 277 279 279 279 276 269 267 268 268 270 274 275 275 273 269 265 262 262 266 268 265 258 250 244 246 258 264 261 260 261 261 259 261 267 273 277 281 285 288 289 289 289 289 289 289 289 289 289 289 290 290 292 294 295 294 296 297 297 298 298 298 297 297 296 296 297
233 237 239 241 241 243 244 245 245 246 247 249 252 254 257 259 262 266 270 273 277 279 280 279 276 273 271 269 270 275 278 276 271 264 258 257 257 258 259 254 244 245 255 259 260 258 253 253 258 264 268 268 271 276 279 283 287 288 289 289 289 289 288 289 290 290 290 291 292 292 293 295 295 295 296 297 297 297 297 297 298 297 296 296 297
242 244 246 248 251 253 254 253 252 253 254 256 258 260 261 263 265 267 269 272 275 277 278 279 279 279 278 275 274 276 278 278 274 261 247 244 249 250 252 253 251 254 255 250 247 248 249 253 257 263 270 272 273 279 283 285 288 288 289 289 289 290 290 291 292 293 293 293 294 295 296 297 297 298 299 299 299 299 298 298 299 299 298 299 299
250 251 252 254 256 256 256 257 257 257 259 262 264 265 266 268 270 271 273 274 275 276 276 278 279 278 277 276 274 274 274 276 276 260 239 232 241 248 251 253 252 251 245 241 244 247 248 252 257 262 269 273 276 281 285 287 288 289 289 290 291 292 293 294 295 295 295 296 297 299 300 301 301 300 300 299 299 298 298 299 299 299 299 300 301
254 255 255 255 256 256 258 260 261 263 265 266 267 268 270 272 272 272 272 273 274 276 276 277 277 274 272 273 272 271 270 269 269 260 243 235 240 247 250 249 246 245 244 244 246 247 248 253 257 263 268 272 276 281 285 288 290 291 291 293 295 295 294 296 297 297 298 299 301 302 303 303 302 301 300 300 299 299 299 299 300 300 300 301 302
255 256 256 257 259 261 263 264 264 266 268 268 269 271 272 272 271 271 271 272 273 274 275 275 273 268 267 269 270 267 264 260 256 254 248 240 239 240 242 242 243 244 247 249 249 248 252 255 258 263 267 270 276 280 284 288 292 295 296 297 299 298 297 298 298 297 298 300 301 302 302 302 301 301 300 298 298 297 297 298 299 299 299 299 298
257 259 261 262 262 263 264 265 266 267 268 268 269 270 269 269 269 270 271 272 273 274 273 271 268 266 266 267 265 262 260 256 251 247 243 240 237 235 233 236 241 244 246 250 250 250 254 257 259 262 265 269 275 279 284 289 294 298 299 300 300 300 299 299 298 297 298 299 300 301 302 302 302 301 300 299 297 297 296 297 298 297 296 296 296
261 262 263 263 263 263 263 264 264 264 264 265 266 267 266 265 266 267 268 269 270 271 271 268 264 266 269 267 264 262 259 254 250 246 241 238 236 234 232 233 240 244 247 253 256 256 255 256 258 262 265 270 276 282 287 290 294 297 298 298 298 298 298 297 297 298 299 299 300 301 303 304 305 304 303 303 302 302 301 301 301 299 298 299 299
265 265 265 265 266 267 267 268 268 267 265 264 263 264 263 262 263 264 264 265 265 265 266 265 261 264 268 266 263 262 260 254 251 248 244 240 237 236 235 235 239 244 248 253 258 259 258 258 262 266 268 272 279 286 290 292 294 295 295 295 295 295 295 296 298 299 300 300 300 302 304 306 306 306 305 304 303 302 303 303 302 302 301 301 301
268 267 267 268 269 270 270 270 270 270 269 267 264 263 261 260 260 261 261 262 261 261 261 261 260 261 264 262 260 259 256 251 248 245 242 241 239 238 239 239 239 241 246 251 256 261 264 266 266 268 271 277 284 290 292 293 294 294 294 293 293 293 294 296 298 299 299 299 300 302 304 305 306 304 303 302 301 301 301 300 300 301 301 301 301
270 269 270 271 272 273 273 272 271 271 269 267 265 262 260 259 258 259 260 259 258 257 257 257 256 256 258 257 255 253 251 248 245 242 240 240 239 239 239 238 237 240 246 252 257 264 270 271 269 270 275 280 286 290 293 294 295 295 294 294 293 293 294 296 296 297 297 298 300 302 303 303 303 302 301 300 300 301 300 299 299 300 300 300 299
271 271 271 272 273 273 273 272 272 271 269 267 265 262 259 258 257 257 257 256 255 254 254 256 257 256 255 257 255 252 250 249 246 244 243 242 241 241 239 238 240 244 251 257 263 269 274 274 273 275 278 282 286 289 292 293 294 293 293 293 293 293 294 295 295 296 297 299 300 301 302 302 301 301 300 300 301 301 300 299 299 299 299 298 298
273 273 273 273 273 273 273 272 271 270 268 266 264 262 260 258 257 256 255 255 255 254 253 255 257 253 250 253 255 253 251 250 250 251 250 247 245 245 246 247 251 255 259 263 266 270 272 274 276 278 280 283 287 289 291 292 291 291 291 292 292 293 293 293 294 295 296 298 299 300 300 299 300 300 301 301 301 301 299 299 299 299 299 299 299
277 277 277 276 276 275 275 273 271 269 267 265 263 261 259 257 256 255 254 254 255 256 255 254 253 252 247 244 248 252 253 253 253 253 253 250 248 251 254 256 257 259 260 263 265 267 268 271 276 280 284 287 289 290 291 291 292 292 292 291 291 292 292 292 293 293 295 296 298 298 298 298 300 301 301 302 302 302 302 301 301 300 300 300 301
279 279 278 278 277 276 274 273 271 269 267 265 263 261 259 257 254 253 252 251 252 255 257 253 251 251 248 242 242 246 251 254 255 255 252 250 252 257 259 259 257 256 258 261 265 267 270 273 278 283 286 288 289 291 291 292 293 293 292 291 290 290 290 291 292 292 294 295 295 295 296 298 300 300 300 302 303 304 303 302 301 302 302 302 303
280 279 278 278 277 276 275 274 272 270 268 265 263 261 259 257 255 253 251 249 247 249 252 252 251 249 248 248 247 245 246 251 253 251 247 247 253 256 255 253 254 256 258 262 266 270 274 279 283 285 286 288 290 291 292 294 293 292 291 291 291 290 291 291 292 292 294 295 294 295 296 298 299 300 301 303 303 303 303 302 302 303 303 303 304
283 281 280 278 277 276 275 274 272 271 270 268 265 261 258 257 255 253 250 249 247 246 247 250 252 252 252 253 252 248 246 246 245 244 242 240 241 244 246 250 255 257 258 261 266 272 279 284 287 287 288 289 290 291 293 294 293 291 289 289 288 290 291 291 292 293 294 294 295 296 297 299 301 302 303 304 304 304 303 303 303 303 303 303 304
286 284 282 281 280 278 277 275 273 272 270 269 267 264 260 256 255 253 251 249 248 248 247 249 251 252 253 254 252 250 247 238 235 245 250 239 230 238 248 253 255 256 257 261 267 276 284 288 289 290 291 291 291 292 292 291 289 289 288 287 287 287 289 290 291 292 293 294 296 297 299 302 303 304 305 305 305 305 304 303 303 303 302 302 302
290 289 288 288 287 285 283 281 278 274 271 269 267 266 263 259 255 253 252 249 247 246 247 248 249 250 251 251 251 252 249 239 237 251 259 254 250 253 252 251 253 257 258 263 271 279 285 288 289 289 290 289 289 288 287 286 286 287 288 289 289 289 289 290 291 292 293 295 297 299 302 305 306 306 307 307 307 307 306 305 304 303 302 300 299
295 295 294 294 293 291 289 286 283 280 277 273 269 265 263 260 256 252 251 250 248 246 246 247 247 247 247 248 250 251 251 251 254 259 256 251 250 250 246 246 251 254 257 264 272 277 281 285 286 286 285 284 284 284 284 284 286 287 287 288 289 290 291 292 292 293 295 297 300 304 307 308 309 310 310 310 310 310 310 308 306 304 301 299 299
301 300 300 299 296 294 292 289 286 283 279 275 272 267 263 259 255 250 247 248 248 247 247 248 247 245 244 244 246 249 251 253 256 256 248 240 238 239 241 245 248 251 257 264 268 273 278 282 283 282 280 280 281 283 285 286 287 287 286 287 288 289 290 292 293 296 298 301 306 309 310 311 312 312 311 312 313 314 313 311 308 305 302 299 298
307 305 303 301 299 298 296 293 291 288 283 277 272 268 263 259 253 246 242 243 246 247 248 249 247 245 243 242 242 245 248 250 251 251 249 246 241 237 238 242 245 250 257 261 264 270 275 276 274 272 273 277 281 283 286 287 287 285 284 286 287 287 288 291 294 297 301 306 308 310 312 314 313 312 313 316 317 316 315 313 310 307 303 300 298
310 309 309 308 307 307 304 301 298 295 290 282 274 270 268 263 255 245 238 238 242 244 247 249 248 244 241 239 239 241 243 245 247 247 245 241 235 232 233 238 244 250 254 257 261 264 264 262 262 265 270 277 281 285 289 289 286 282 282 284 286 286 288 291 296 301 306 310 312 313 316 316 314 314 319 321 320 319 318 317 314 311 308 307 305
315 317 318 318 318 316 313 309 304 298 293 284 274 272 275 271 259 244 233 230 234 236 239 246 249 241 235 234 235 237 238 240 244 244 236 224 218 222 229 236 244 249 249 250 254 255 254 254 258 264 271 277 282 287 291 289 282 278 279 283 285 287 289 292 300 306 309 311 313 316 317 316 316 320 325 325 324 324 324 322 319 317 316 316 315
324 326 327 328 328 327 325 320 310 301 294 283 270 268 273 271 257 237 223 218 221 226 230 240 246 235 227 229 232 235 238 240 245 247 236 218 210 217 228 235 241 243 240 241 248 252 252 252 257 266 273 278 284 291 292 286 278 276 279 282 284 286 290 295 302 305 306 308 312 317 319 321 323 327 329 330 329 330 330 330 328 325 323 322 320
332 334 333 334 335 335 334 330 320 308 298 285 270 263 264 260 245 225 212 207 211 217 219 226 239 233 225 225 229 235 240 242 244 246 238 222 216 225 233 230 226 230 234 238 245 249 248 249 257 266 272 275 282 289 289 280 275 277 280 281 281 285 293 302 307 308 309 312 317 321 324 327 329 330 332 335 336 336 336 337 335 330 326 322 317
337 338 338 337 339 339 340 339 332 319 309 295 272 253 250 250 231 209 199 198 205 213 215 221 236 240 235 230 231 237 244 245 243 242 235 227 228 235 233 221 218 230 236 238 242 245 248 252 258 263 267 271 278 283 282 277 276 277 276 276 280 288 300 309 312 312 313 316 319 324 330 333 334 334 337 341 342 341 340 339 337 333 329 322 316
343 342 341 342 343 343 344 345 340 330 324 315 280 248 247 242 210 191 187 192 202 211 215 221 232 240 239 233 231 233 239 244 244 238 229 223 220 220 218 217 224 232 234 235 241 245 249 254 257 260 265 270 273 275 276 275 274 272 270 273 284 296 306 311 311 312 315 320 324 329 334 336 337 339 342 343 344 344 343 342 341 339 334 328 322
347 347 347 347 347 348 350 351 349 343 338 332 302 247 216 188 177 175 179 188 199 208 214 220 230 239 237 232 229 230 237 245 245 238 230 220 208 202 207 216 222 225 228 234 239 242 248 254 258 261 264 267 268 269 272 271 267 265 268 279 294 304 307 309 311 315 321 325 328 332 336 338 340 342 342 343 346 349 349 347 345 343 342 338 332
351 351 351 350 352 355 357 358 2 7 11 20 60 131 146 149 154 164 175 186 198 208 215 220 228 233 232 230 229 232 240 247 243 234 229 221 210 206 215 221 219 217 224 232 238 244 251 255 257 259 261 263 264 265 266 262 259 261 272 289 299 304 306 310 317 323 327 328 331 334 336 339 342 343 342 344 350 353 351 348 348 349 350 348 343
2 355 354 354 356 1 4 6 17 36 53 66 87 115 136 146 153 163 175 187 198 204 206 212 223 228 227 227 229 234 241 246 241 231 227 221 216 222 233 229 219 215 224 235 243 250 252 253 257 260 260 259 259 258 255 252 253 261 281 292 297 303 307 315 324 328 328 331 334 336 337 339 342 344 344 348 352 352 349 349 352 355 357 356 352
13 5 2 360 360 7 12 15 30 56 76 84 86 94 106 125 153 163 168 180 192 198 206 219 221 217 218 223 227 234 240 244 244 243 237 233 236 240 233 221 217 222 233 241 246 249 250 252 257 258 255 252 249 246 243 244 251 266 282 287 294 304 311 319 326 326 327 333 337 337 337 340 341 343 347 351 351 348 347 351 355 357 359 0 358
17 15 13 9 6 13 21 23 33 59 82 91 90 93 100 120 151 156 151 154 172 192 216 222 210 203 207 214 221 228 235 237 239 238 234 233 233 225 215 216 225 236 238 237 239 243 246 249 251 249 246 242 238 235 235 240 251 266 276 280 289 299 307 316 321 321 325 335 338 337 338 340 341 345 350 350 346 344 349 355 357 357 359 0 360
19 19 20 20 18 22 30 35 36 47 68 83 91 103 115 125 137 143 143 148 164 175 188 198 200 206 212 213 215 221 226 228 230 229 225 221 217 213 213 219 226 226 224 228 234 239 241 242 241 237 233 229 227 229 232 236 247 262 271 275 282 290 299 307 311 314 323 332 335 337 340 342 343 346 348 345 342 346 353 358 358 358 358 358 358
22 25 25 27 30 33 40 48 49 46 54 72 87 101 113 119 126 137 149 168 179 183 187 193 199 206 213 214 215 218 219 218 217 213 207 204 205 207 210 212 211 211 219 228 233 234 233 232 229 227 224 223 224 225 227 234 246 256 261 266 274 285 294 300 304 310 319 326 330 334 339 341 343 344 344 344 346 351 356 358 359 358 357 355 355
30 32 33 35 39 42 45 52 54 51 51 63 78 92 105 110 108 110 136 178 193 206 217 217 214 216 220 222 223 223 221 219 213 205 200 201 205 208 207 204 204 210 219 225 225 222 221 221 223 223 223 222 221 222 224 230 235 238 244 255 268 281 291 298 304 310 314 319 323 328 332 337 341 343 343 345 349 354 356 358 359 358 356 355 354
40 39 39 39 41 43 46 48 50 51 53 60 71 83 90 88 76 78 102 147 199 227 234 232 234 236 235 232 231 230 229 226 219 210 206 207 208 206 205 204 205 209 213 214 212 210 212 217 223 224 223 221 219 218 220 221 223 229 242 257 270 283 291 298 304 309 311 313 317 321 326 333 339 341 342 346 351 354 355 356 357 357 357 356 355
49 47 45 44 43 42 42 44 45 47 49 52 55 55 51 43 41 52 67 69 42 304 269 252 249 244 233 222 220 220 217 211 205 202 203 207 210 209 207 204 202 201 202 202 202 204 212 219 223 221 219 217 216 215 217 220 227 239 255 268 279 289 295 300 305 308 309 310 314 318 322 327 333 338 342 346 349 352 353 355 356 357 358 358 357
Height
3115 3116 3117 3119 3120 3122 3123 3124 3125 3126 3127 3128 3129 3129 3130 3130 3130 3131 3132 3132 3133 3134 3134 3135 3135 3135 3136 3137 3137 3138 3138 3139 3139 3139 3140 3140 3140 3140 3140 3141 3141 3141 3142 3142 3142 3142 3142 3142 3142 3142 3142 3142 3142 3142 3143 3143 3143 3143 3144 3144 3144 3144 3144 3144 3144 3145 3145 3145 3145 3144 3144 3144 3144 3144 3143 3143 3143 3143 3143 3142 3142 3142 3142 3141 3142
3114 3116 3117 3118 3120 3121 3123 3124 3125 3126 3126 3127 3127 3128 3129 3129 3129 3130 3131 3131 3132 3133 3134 3134 3134 3135 3136 3136 3137 3138 3138 3138 3139 3139 3139 3140 3140 3140 3140 3141 3141 3141 3141 3141 3141 3142 3142 3142 3142 3142 3142 3142 3142 3142 3142 3143 3143 3143 3143 3143 3144 3144 3144 3144 3144 3144 3144 3144 3144 3144 3144 3143 3143 3143 3142 3142 3142 3141 3141 3141 3140 3140 3140 3139 3139
3114 3116 3117 3119 3120 3121 3122 3123 3124 3125 3126 3126 3126 3127 3127 3127 3128 3129 3130 3130 3131 3132 3132 3133 3133 3134 3135 3135 3136 3137 3137 3138 3138 3139 3139 3139 3139 3140 3140 3140 3140 3140 3140 3140 3140 3141 3141 3141 3141 3141 3141 3142 3142 3142 3142 3142 3142 3142 3142 3142 3143 3143 3143 3143 3143 3143 3143 3143 3143 3143 3143 3142 3142 3141 3141 3141 3141 3140 3140 3139 3139 3138 3138 3138 3137
3115 3116 3117 3119 3120 3121 3122 3122 3123 3124 3125 3125 3125 3126 3126 3126 3127 3127 3128 3129 3129 3130 3131 3131 3132 3133 3133 3134 3135 3136 3136 3137 3137 3137 3138 3138 3138 3139 3139 3139 3139 3139 3139 3139 3139 3139 3140 3140 3140 3140 3140 3141 3141 3141 3141 3141 3141 3141 3141 3141 3141 3141 3142 3142 3142 3142 3142 3142 3142 3141 3141 3141 3141 3140 3140 3139 3139 3139 3138 3138 3137 3136 3136 3136 3135
3114 3116 3117 3118 3119 3120 3121 3122 3122 3123 3124 3124 3124 3125 3125 3125 3125 3126 3126 3127 3128 3128 3129 3130 3130 3131 3132 3133 3133 3134 3134 3135 3135 3136 3136 3136 3137 3137 3137 3137 3138 3138 3138 3138 3138 3138 3138 3138 3138 3139 3139 3139 3139 3140 3140 3140 3140 3140 3141 3140 3140 3140 3141 3141 3141 3141 3140 3140 3140 3140 3140 3139 3139 3139 3138 3138 3137 3136 3135 3135 3135 3134 3132 3133 3133
3114 3115 3116 3117 3119 3119 3120 3120 3121 3122 3123 3123 3123 3124 3124 3124 3124 3125 3125 3125 3126 3127 3127 3128 3129 3130 3131 3131 3131 3132 3132 3132 3133 3133 3133 3134 3135 3135 3135 3135 3136 3136 3136 3136 3135 3135 3135 3136 3136 3136 3137 3137 3137 3138 3138 3139 3139 3139 3139 3139 3139 3139 3140 3139 3139 3139 3140 3139 3138 3138 3138 3138 3137 3137 3136 3136 3136 3135 3133 3133 3133 3132 3130 3129 3129
3113 3114 3115 3117 3118 3119 3119 3119 3120 3120 3121 3122 3122 3122 3123 3123 3123 3123 3124 3124 3124 3125 3126 3127 3127 3128 3129 3129 3130 3130 3130 3130 3130 3130 3131 3132 3132 3133 3133 3133 3133 3133 3133 3133 3133 3132 3133 3133 3134 3134 3135 3135 3136 3136 3136 3137 3137 3137 3137 3137 3137 3138 3138 3139 3138 3138 3139 3138 3137 3136 3135 3136 3136 3135 3134 3134 3134 3133 3131 3131 3131 3130 3128 3127 3126
3112 3113 3114 3115 3116 3117 3118 3118 3118 3118 3119 3120 3120 3121 3121 3121 3122 3122 3122 3123 3123 3124 3124 3125 3126 3126 3127 3127 3128 3127 3128 3128 3128 3128 3129 3129 3130 3130 3130 3130 3130 3130 3130 3129 3129 3129 3130 3130 3131 3132 3133 3133 3134 3134 3135 3135 3135 3136 3136 3136 3136 3137 3137 3137 3137 3137 3137 3137 3136 3135 3134 3133 3133 3132 3131 3131 3131 3131 3130 3129 3128 3127 3126 3125 3124
3110 3111 3112 3113 3114 3115 3116 3116 3116 3116 3116 3117 3117 3118 3119 3119 3119 3120 3121 3121 3122 3122 3123 3123 3124 3124 3124 3125 3124 3124 3124 3125 3126 3126 3127 3127 3127 3127 3127 3127 3127 3126 3126 3125 3125 3126 3126 3127 3128 3129 3130 3131 3132 3132 3133 3133 3133 3134 3134 3134 3135 3135 3135 3135 3135 3135 3135 3135 3134 3134 3133 3132 3131 3129 3128 3128 3128 3128 3127 3126 3125 3124 3123 3122 3122
3108 3110 3111 3112 3112 3113 3114 3114 3114 3114 3114 3115 3115 3116 3117 3118 3118 3119 3119 3119 3120 3120 3121 3121 3121 3121 3121 3122 3122 3121 3121 3121 3123 3124 3125 3124 3124 3125 3124 3124 3124 3124 3123 3122 3122 3123 3124 3124 3125 3127 3128 3129 3129 3130 3131 3131 3131 3132 3132 3132 3133 3133 3132 3132 3132 3133 3132 3133 3132 3132 3130 3130 3129 3127 3126 3125 3125 3125 3124 3123 3122 3121 3120 3119 3119
3107 3108 3109 3110 3111 3111 3112 3113 3113 3113 3113 3113 3114 3115 3115 3116 3116 3116 3117 3116 3117 3118 3119 3119 3119 3119 3119 3120 3119 3118 3117 3119 3122 3123 3123 3122 3122 3122 3121 3120 3121 3120 3120 3120 3120 3120 3121 3122 3123 3125 3126 3127 3127 3128 3128 3129 3129 3129 3130 3130 3130 3130 3130 3130 3130 3130 3130 3130 3130 3129 3128 3127 3126 3125 3124 3123 3122 3121 3121 3119 3118 3117 3117 3116 3115
3105 3106 3107 3108 3109 3110 3110 3111 3111 3112 3112 3112 3112 3113 3113 3113 3113 3114 3114 3115 3116 3117 3118 3119 3118 3118 3118 3118 3117 3115 3116 3119 3121 3121 3120 3120 3120 3119 3117 3117 3117 3117 3118 3119 3119 3118 3118 3119 3121 3123 3124 3125 3125 3125 3126 3126 3126 3127 3127 3127 3127 3127 3127 3127 3127 3127 3127 3127 3126 3126 3126 3125 3123 3122 3121 3121 3119 3118 3117 3116 3115 3113 3113 3112 3111
3103 3105 3106 3106 3107 3108 3108 3109 3110 3110 3110 3111 3111 3111 3111 3111 3110 3110 3111 3112 3112 3113 3114 3115 3116 3116 3116 3116 3115 3114 3114 3116 3117 3117 3117 3117 3117 3116 3115 3114 3115 3116 3118 3119 3117 3116 3117 3117 3118 3121 3122 3122 3123 3123 3124 3123 3123 3124 3124 3124 3124 3124 3124 3124 3124 3124 3124 3124 3124 3123 3122 3122 3121 3118 3118 3117 3116 3115 3114 3113 3111 3110 3108 3107 3106
3102 3103 3104 3104 3105 3106 3106 3107 3107 3108 3108 3109 3109 3109 3109 3109 3108 3108 3108 3108 3108 3108 3109 3111 3112 3113 3113 3113 3112 3111 3111 3112 3113 3114 3114 3114 3114 3113 3112 3113 3114 3114 3115 3115 3114 3114 3115 3116 3117 3118 3119 3120 3120 3121 3121 3121 3121 3121 3121 3121 3121 3121 3121 3121 3121 3121 3121 3120 3120 3119 3118 3118 3117 3115 3114 3114 3112 3111 3110 3108 3107 3106 3104 3103 3102
3100 3101 3102 3103 3103 3104 3104 3105 3105 3106 3106 3107 3107 3107 3107 3107 3107 3106 3106 3106 3106 3106 3106 3107 3108 3109 3109 3109 3109 3108 3108 3110 3110 3110 3111 3111 3112 3111 3110 3112 3113 3112 3112 3112 3113 3113 3114 3115 3115 3116 3116 3117 3118 3118 3118 3118 3118 3118 3118 3118 3118 3118 3118 3118 3118 3117 3117 3117 3116 3115 3115 3114 3113 3112 3111 3109 3108 3107 3105 3104 3103 3101 3099 3098 3097
3098 3099 3100 3100 3101 3102 3102 3103 3103 3104 3104 3105 3105 3105 3105 3105 3105 3105 3105 3104 3104 3104 3104 3104 3105 3106 3106 3106 3106 3106 3106 3106 3106 3106 3107 3108 3109 3109 3108 3109 3110 3110 3110 3111 3112 3112 3113 3113 3113 3113 3114 3115 3115 3115 3115 3115 3115 3115 3115 3115 3115 3115 3115 3114 3114 3114 3113 3113 3112 3111 3111 3110 3109 3108 3106 3105 3103 3102 3100 3099 3098 3096 3094 3092 3092
3096 3097 3097 3098 3098 3099 3100 3100 3101 3101 3102 3102 3103 3102 3102 3103 3103 3102 3102 3102 3102 3102 3102 3102 3102 3102 3102 3103 3103 3103 3103 3103 3103 3103 3103 3104 3105 3106 3106 3107 3107 3108 3109 3109 3110 3110 3111 3111 3111 3111 3111 3112 3112 3112 3113 3112 3112 3112 3112 3112 3111 3111 3111 3111 3110 3110 3109 3109 3108 3107 3106 3106 3104 3103 3102 3101 3099 3097 3095 3094 3093 3091 3089 3087 3086
3093 3093 3094 3095 3095 3096 3097 3097 3098 3098 3099 3100 3100 3099 3100 3100 3100 3100 3100 3100 3100 3099 3099 3099 3099 3098 3098 3099 3099 3100 3100 3100 3100 3101 3102 3102 3103 3104 3105 3105 3106 3106 3106 3107 3107 3108 3109 3109 3109 3109 3109 3110 3110 3110 3110 3110 3109 3109 3109 3108 3108 3107 3108 3108 3107 3106 3105 3104 3103 3103 3102 3101 3100 3099 3097 3096 3094 3092 3090 3089 3088 3086 3084 3082 3080
3090 3090 3091 3092 3092 3093 3093 3094 3094 3095 3095 3096 3096 3096 3096 3097 3096 3096 3096 3096 3096 3096 3096 3096 3095 3095 3095 3096 3096 3096 3096 3097 3098 3099 3099 3100 3101 3102 3103 3103 3103 3104 3104 3104 3105 3106 3106 3106 3106 3106 3107 3107 3107 3108 3107 3107 3106 3105 3104 3104 3103 3102 3103 3104 3103 3102 3101 3100 3099 3099 3098 3097 3096 3094 3093 3091 3090 3088 3086 3085 3083 3081 3079 3077 3076
3087 3087 3088 3088 3089 3089 3089 3090 3090 3091 3092 3092 3092 3092 3093 3093 3092 3092 3093 3093 3092 3092 3092 3092 3092 3091 3092 3093 3093 3093 3094 3094 3095 3096 3096 3097 3098 3099 3100 3100 3100 3101 3101 3101 3101 3102 3103 3103 3104 3104 3104 3104 3104 3105 3104 3104 3103 3102 3101 3100 3100 3099 3098 3099 3100 3099 3097 3097 3096 3095 3094 3092 3091 3089 3087 3086 3085 3084 3082 3081 3079 3077 3075 3073 3071
3083 3084 3084 3084 3085 3085 3085 3085 3086 3087 3088 3088 3088 3088 3088 3089 3088 3088 3089 3089 3089 3088 3088 3088 3088 3087 3087 3088 3089 3089 3090 3091 3092 3093 3093 3094 3095 3096 3096 3096 3097 3097 3098 3098 3098 3098 3099 3100 3100 3100 3101 3101 3101 3101 3101 3100 3100 3099 3098 3098 3097 3096 3095 3095 3095 3095 3094 3093 3092 3090 3089 3087 3085 3083 3081 3079 3077 3076 3075 3074 3073 3071 3069 3067 3065
3079 3079 3079 3079 3080 3080 3081 3081 3081 3082 3083 3083 3083 3084 3084 3084 3084 3084 3084 3085 3085 3085 3084 3084 3084 3083 3083 3084 3084 3085 3086 3087 3088 3089 3090 3091 3092 3093 3093 3093 3094 3094 3095 3095 3094 3094 3095 3097 3097 3097 3097 3097 3097 3097 3097 3097 3097 3096 3096 3095 3094 3094 3093 3091 3091 3091 3090 3088 3087 3086 3084 3083 3081 3079 3077 3075 3073 3071 3069 3068 3066 3065 3063 3062 3060
3074 3074 3074 3075 3075 3075 3076 3076 3076 3077 3077 3078 3078 3079 3079 3080 3080 3080 3080 3080 3081 3081 3080 3080 3080 3079 3079 3080 3080 3081 3082 3083 3083 3085 3086 3087 3088 3089 3089 3090 3091 3091 3092 3092 3091 3090 3092 3094 3094 3093 3094 3094 3094 3094 3093 3093 3093 3092 3092 3092 3091 3091 3090 3088 3087 3086 3086 3084 3083 3082 3080 3078 3076 3075 3072 3071 3069 3067 3065 3064 3062 3060 3059 3057 3056
3069 3069 3069 3069 3070 3070 3070 3070 3070 3071 3071 3072 3072 3073 3074 3074 3075 3075 3075 3075 3076 3076 3076 3076 3076 3076 3075 3076 3076 3077 3078 3079 3079 3081 3082 3083 3084 3085 3086 3086 3087 3088 3088 3089 3088 3087 3089 3090 3090 3090 3090 3090 3090 3090 3089 3089 3089 3088 3088 3088 3087 3087 3086 3085 3084 3083 3082 3080 3079 3077 3076 3074 3072 3070 3068 3066 3065 3064 3062 3059 3058 3057 3055 3053 3051
3063 3063 3063 3063 3063 3064 3064 3064 3064 3064 3064 3065 3066 3066 3067 3068 3069 3070 3070 3070 3071 3071 3071 3071 3072 3072 3072 3071 3072 3072 3073 3075 3075 3077 3078 3079 3080 3081 3082 3083 3084 3085 3085 3085 3084 3085 3086 3086 3086 3086 3086 3086 3086 3086 3085 3085 3085 3084 3084 3084 3083 3083 3082 3081 3080 3079 3077 3076 3074 3073 3071 3069 3067 3065 3064 3062 3061 3060 3058 3055 3053 3052 3051 3049 3047
3056 3056 3056 3056 3056 3056 3056 3057 3057 3057 3057 3057 3058 3059 3060 3061 3062 3063 3064 3064 3064 3065 3066 3067 3068 3068 3068 3067 3066 3066 3068 3070 3071 3072 3074 3075 3077 3078 3079 3080 3080 3081 3081 3081 3081 3081 3082 3082 3082 3082 3082 3082 3082 3082 3081 3081 3081 3081 3080 3080 3079 3079 3078 3077 3076 3075 3073 3072 3070 3068 3067 3065 3063 3061 3059 3058 3057 3055 3053 3051 3049 3047 3045 3043 3042
3049 3049 3048 3048 3048 3048 3048 3049 3049 3049 3049 3049 3050 3051 3052 3053 3054 3056 3057 3058 3058 3058 3059 3061 3062 3063 3063 3063 3061 3060 3062 3064 3066 3067 3068 3070 3071 3073 3074 3075 3075 3076 3076 3077 3077 3078 3078 3078 3078 3078 3078 3078 3078 3077 3077 3077 3077 3077 3076 3076 3075 3075 3074 3073 3072 3070 3069 3067 3066 3064 3062 3061 3059 3058 3056 3054 3052 3050 3048 3046 3044 3042 3040 3038 3036
3041 3041 3041 3040 3041 3041 3040 3040 3041 3041 3041 3042 3042 3043 3044 3045 3046 3048 3050 3052 3053 3052 3052 3054 3056 3057 3059 3059 3057 3055 3056 3058 3060 3061 3063 3065 3066 3068 3069 3069 3070 3071 3072 3073 3073 3074 3074 3074 3074 3075 3074 3074 3074 3074 3073 3074 3073 3073 3072 3072 3071 3070 3070 3069 3067 3066 3065 3064 3062 3060 3059 3057 3056 3054 3052 3051 3049 3046 3044 3041 3039 3037 3035 3033 3031
3034 3034 3034 3033 3033 3033 3033 3033 3033 3033 3033 3034 3034 3035 3036 3037 3038 3040 3042 3044 3045 3046 3046 3046 3048 3051 3053 3054 3055 3053 3051 3053 3054 3056 3058 3060 3061 3063 3064 3065 3066 3067 3068 3069 3069 3070 3070 3071 3071 3071 3071 3071 3070 3070 3069 3069 3070 3069 3069 3068 3066 3065 3065 3064 3062 3061 3060 3059 3058 3057 3055 3054 3053 3051 3049 3047 3045 3043 3040 3037 3035 3033 3031 3029 3027
3028 3028 3027 3027 3026 3026 3026 3026 3025 3025 3025 3025 3026 3027 3028 3029 3030 3032 3034 3035 3037 3039 3039 3039 3041 3043 3046 3048 3051 3050 3048 3049 3051 3051 3052 3055 3057 3058 3060 3061 3062 3064 3065 3065 3066 3066 3067 3067 3067 3067 3067 3067 3067 3066 3065 3065 3065 3065 3065 3064 3063 3061 3060 3060 3058 3057 3056 3055 3055 3053 3052 3051 3049 3047 3045 3043 3041 3039 3036 3034 3031 3029 3027 3025 3024
3023 3023 3022 3022 3021 3021 3020 3020 3020 3019 3019 3018 3018 3018 3020 3021 3022 3024 3026 3028 3030 3032 3033 3034 3035 3038 3040 3042 3044 3046 3045 3046 3047 3048 3049 3050 3052 3054 3056 3058 3059 3060 3061 3062 3062 3063 3063 3063 3063 3063 3063 3063 3063 3063 3062 3062 3061 3060 3060 3060 3059 3058 3057 3056 3055 3054 3053 3052 3051 3050 3049 3047 3046 3044 3042 3040 3037 3035 3033 3030 3028 3026 3024 3022 3020
3020 3019 3018 3018 3017 3016 3016 3015 3014 3014 3013 3013 3012 3012 3012 3013 3015 3016 3018 3020 3022 3024 3026 3027 3029 3032 3035 3035 3037 3040 3042 3042 3043 3044 3046 3047 3049 3051 3052 3054 3055 3056 3058 3059 3059 3060 3060 3060 3060 3060 3060 3060 3059 3059 3059 3058 3058 3057 3056 3055 3055 3054 3054 3053 3052 3052 3050 3049 3048 3047 3046 3044 3042 3040 3038 3036 3034 3032 3030 3027 3025 3023 3021 3019 3018
3017 3016 3015 3014 3013 3012 3011 3010 3009 3008 3007 3007 3006 3006 3006 3006 3008 3009 3011 3013 3015 3017 3019 3021 3023 3026 3029 3030 3031 3033 3036 3038 3040 3041 3041 3042 3045 3047 3048 3050 3051 3053 3054 3055 3056 3056 3057 3057 3057 3057 3057 3056 3056 3056 3055 3055 3054 3054 3053 3052 3052 3051 3051 3050 3049 3048 3048 3047 3045 3044 3043 3041 3039 3037 3035 3033 3030 3028 3026 3024 3022 3020 3018 3016 3015
3014 3013 3012 3011 3009 3008 3007 3006 3004 3003 3002 3000 3000 2999 3000 3000 3002 3004 3005 3006 3008 3010 3013 3015 3017 3019 3022 3025 3027 3028 3031 3034 3038 3040 3039 3039 3040 3043 3045 3046 3048 3049 3051 3052 3053 3053 3054 3054 3054 3054 3054 3054 3053 3053 3053 3052 3052 3051 3051 3050 3049 3048 3048 3047 3047 3046 3045 3043 3042 3041 3040 3038 3036 3034 3032 3030 3028 3026 3023 3021 3019 3017 3015 3014 3012
3012 3011 3010 3008 3006 3005 3003 3001 2999 2997 2996 2994 2993 2992 2993 2994 2995 2997 2999 3001 3003 3006 3008 3009 3011 3013 3016 3019 3022 3024 3027 3030 3033 3036 3037 3037 3038 3039 3041 3042 3044 3046 3048 3049 3049 3050 3050 3051 3051 3051 3051 3051 3051 3051 3050 3050 3049 3048 3048 3048 3047 3046 3046 3045 3044 3043 3042 3041 3040 3039 3037 3036 3034 3032 3030 3028 3026 3023 3021 3019 3017 3015 3013 3011 3010
3010 3008 3007 3005 3003 3001 2998 2996 2994 2992 2990 2988 2987 2987 2987 2987 2989 2991 2994 2997 2999 3002 3003 3004 3005 3008 3011 3014 3017 3020 3022 3025 3028 3031 3032 3034 3035 3036 3037 3039 3042 3044 3045 3046 3046 3046 3047 3048 3048 3048 3049 3049 3048 3048 3047 3047 3046 3046 3046 3045 3045 3044 3044 3043 3042 3041 3040 3039 3038 3037 3035 3034 3032 3030 3028 3026 3023 3021 3019 3016 3014 3012 3010 3009 3007
3008 3006 3004 3002 3000 2997 2995 2992 2989 2987 2985 2983 2982 2982 2983 2983 2984 2986 2989 2993 2995 2998 2999 3000 3001 3004 3006 3009 3012 3015 3018 3020 3023 3025 3027 3029 3030 3032 3034 3036 3039 3040 3041 3041 3042 3043 3044 3045 3045 3046 3046 3046 3046 3045 3045 3045 3044 3044 3044 3043 3043 3042 3041 3041 3040 3039 3038 3037 3036 3035 3034 3032 3031 3028 3026 3024 3021 3019 3017 3014 3012 3010 3008 3006 3005
3006 3004 3002 3000 2997 2995 2992 2989 2986 2983 2980 2979 2978 2979 2979 2979 2980 2982 2985 2989 2991 2994 2997 2999 2999 3001 3003 3006 3009 3012 3014 3016 3019 3021 3022 3023 3025 3027 3030 3033 3035 3036 3037 3038 3039 3040 3041 3042 3043 3043 3043 3044 3043 3042 3042 3042 3042 3042 3042 3041 3041 3040 3039 3039 3038 3037 3037 3036 3035 3034 3033 3031 3029 3027 3024 3022 3020 3017 3015 3012 3010 3008 3006 3005 3003
3004 3002 3000 2998 2996 2993 2990 2986 2982 2979 2977 2975 2975 2975 2976 2977 2978 2980 2983 2986 2989 2992 2996 2997 2997 2998 3001 3004 3007 3009 3011 3013 3016 3018 3020 3021 3023 3026 3028 3030 3031 3033 3034 3035 3037 3038 3039 3040 3040 3040 3041 3041 3041 3040 3040 3040 3040 3040 3040 3039 3039 3038 3037 3037 3036 3036 3035 3035 3034 3033 3031 3029 3027 3025 3022 3020 3018 3015 3013 3010 3008 3006 3005 3003 3002
3003 3001 2999 2997 2994 2991 2988 2984 2980 2977 2975 2973 2972 2973 2974 2975 2977 2978 2981 2984 2987 2990 2994 2995 2995 2996 3000 3003 3005 3007 3009 3011 3013 3015 3017 3019 3021 3024 3025 3027 3028 3030 3032 3033 3034 3035 3036 3037 3038 3038 3038 3038 3038 3038 3038 3038 3038 3038 3038 3038 3037 3036 3036 3035 3035 3034 3034 3033 3032 3031 3029 3027 3025 3023 3021 3018 3016 3014 3011 3009 3007 3005 3003 3002 3001
3002 3000 2998 2996 2993 2990 2987 2982 2978 2975 2973 2971 2971 2971 2973 2974 2976 2978 2981 2984 2987 2989 2991 2992 2993 2996 2999 3001 3003 3006 3008 3009 3011 3013 3014 3015 3018 3020 3022 3024 3025 3027 3029 3031 3032 3033 3033 3034 3035 3035 3036 3036 3036 3036 3036 3036 3036 3036 3036 3036 3035 3035 3034 3034 3034 3033 3033 3032 3031 3029 3028 3026 3024 3022 3019 3017 3015 3013 3010 3008 3006 3004 3002 3001 2999
3002 3000 2997 2995 2993 2990 2986 2983 2978 2975 2973 2971 2970 2970 2972 2974 2977 2980 2982 2984 2986 2988 2989 2991 2993 2995 2997 2999 3002 3004 3007 3008 3009 3011 3012 3013 3014 3015 3017 3020 3022 3025 3027 3028 3029 3030 3031 3032 3032 3033 3033 3034 3034 3034 3034 3035 3035 3035 3035 3034 3034 3033 3033 3033 3033 3032 3032 3031 3030 3028 3027 3025 3023 3021 3019 3017 3015 3012 3009 3007 3005 3003 3002 3000 2998
3001 2999 2997 2995 2992 2990 2987 2984 2980 2976 2974 2972 2971 2972 2974 2976 2979 2981 2983 2984 2986 2988 2989 2992 2994 2995 2997 2999 3001 3003 3005 3007 3007 3008 3010 3011 3012 3013 3015 3017 3020 3023 3025 3026 3026 3028 3029 3029 3030 3030 3031 3032 3032 3032 3033 3033 3033 3033 3033 3033 3032 3032 3032 3032 3032 3031 3031 3030 3028 3027 3026 3024 3022 3020 3018 3016 3014 3011 3009 3007 3005 3003 3000 2998 2996
3001 2999 2997 2995 2993 2990 2988 2986 2982 2979 2978 2977 2977 2977 2978 2980 2981 2982 2984 2985 2987 2988 2990 2992 2994 2995 2996 2998 3000 3002 3004 3005 3005 3006 3008 3010 3012 3014 3016 3018 3019 3021 3023 3023 3024 3026 3026 3027 3027 3029 3030 3030 3030 3031 3031 3032 3032 3032 3031 3031 3031 3032 3032 3031 3031 3030 3030 3029 3027 3026 3025 3023 3021 3020 3018 3015 3013 3010 3009 3006 3004 3002 2999 2997 2995
3001 2999 2997 2995 2993 2991 2990 2988 2985 2983 2982 2982 2982 2982 2982 2983 2983 2984 2985 2987 2988 2990 2991 2992 2993 2994 2996 2998 2999 3001 3002 3004 3005 3006 3008 3010 3012 3014 3016 3017 3018 3020 3021 3022 3023 3024 3024 3025 3026 3027 3028 3028 3029 3029 3030 3030 3030 3030 3030 3030 3030 3031 3031 3030 3030 3030 3029 3028 3027 3026 3024 3022 3021 3019 3017 3015 3012 3011 3008 3006 3003 3000 2998 2996 2994
3002 3000 2997 2995 2994 2992 2991 2990 2988 2987 2986 2985 2985 2985 2985 2985 2985 2986 2987 2988 2990 2991 2992 2992 2993 2994 2996 2997 2998 3000 3001 3002 3004 3005 3007 3009 3011 3012 3014 3016 3017 3018 3019 3020 3022 3022 3023 3024 3025 3026 3026 3027 3027 3028 3028 3029 3029 3029 3029 3029 3030 3030 3030 3029 3029 3029 3028 3027 3026 3025 3024 3022 3020 3018 3016 3014 3013 3011 3008 3005 3002 3000 2998 2996 2994
3003 3001 2999 2996 2995 2994 2992 2991 2990 2989 2988 2988 2987 2987 2987 2987 2987 2988 2989 2990 2991 2992 2992 2993 2994 2995 2996 2997 2998 2999 3000 3001 3002 3004 3005 3007 3009 3011 3013 3014 3015 3017 3018 3019 3020 3021 3022 3023 3023 3024 3025 3025 3026 3026 3027 3027 3027 3028 3028 3028 3029 3029 3029 3028 3028 3028 3027 3026 3026 3025 3023 3021 3020 3018 3016 3015 3013 3010 3008 3005 3002 3000 2997 2995 2994
3005 3003 3001 2998 2996 2995 2994 2993 2992 2992 2991 2991 2990 2990 2990 2990 2990 2990 2991 2991 2992 2993 2993 2994 2994 2995 2996 2997 2998 2999 3000 3001 3002 3003 3004 3006 3008 3010 3011 3013 3014 3016 3017 3018 3019 3020 3021 3021 3022 3023 3023 3024 3025 3025 3025 3026 3026 3027 3027 3027 3027 3028 3028 3027 3027 3027 3026 3025 3025 3024 3023 3021 3019 3018 3016 3014 3012 3010 3007 3005 3002 3000 2997 2995 2994
3006 3005 3003 3001 2999 2998 2996 2995 2994 2994 2993 2993 2993 2993 2992 2992 2992 2992 2992 2993 2993 2994 2994 2995 2995 2996 2996 2997 2998 2999 3000 3001 3002 3003 3004 3006 3007 3009 3010 3012 3013 3015 3016 3017 3018 3018 3019 3020 3021 3022 3022 3023 3023 3024 3024 3025 3025 3026 3026 3026 3027 3027 3027 3026 3026 3026 3025 3024 3024 3023 3022 3020 3019 3017 3016 3014 3012 3009 3007 3005 3002 3000 2998 2996 2994
3008 3006 3005 3003 3002 3000 2999 2998 2997 2996 2995 2995 2995 2995 2995 2995 2994 2994 2994 2994 2994 2995 2995 2995 2995 2996 2996 2997 2998 2999 3000 3001 3002 3003 3005 3006 3007 3008 3009 3011 3012 3014 3015 3016 3016 3017 3018 3019 3020 3021 3021 3022 3022 3023 3023 3024 3024 3025 3025 3025 3026 3026 3026 3025 3025 3025 3024 3023 3023 3022 3021 3020 3018 3017 3015 3013 3011 3009 3007 3005 3003 3001 2998 2996 2994
3010 3008 3007 3005 3004 3003 3002 3001 2999 2998 2997 2997 2997 2997 2996 2996 2996 2996 2995 2995 2995 2996 2996 2996 2996 2996 2996 2997 2998 2999 3000 3001 3002 3003 3004 3005 3006 3007 3009 3010 3012 3012 3013 3014 3015 3016 3017 3018 3019 3020 3020 3021 3021 3022 3022 3023 3023 3024 3024 3024 3025 3025 3024 3024 3024 3024 3023 3022 3022 3021 3020 3019 3017 3016 3015 3013 3011 3009 3007 3005 3003 3001 2999 2997 2994